Regional Weather Roundup
Issued by NWS Charleston, SC

Current Version | Previous Version | Text Only | Print | Product List | Glossary Off
Versions: 1 2 3 4 5 6 7 8 9 10 11 12 13 14 15 16 17 18 19 20 21 22 23 24 25 26 27 28 29 30 31 32 33 34 35 36 37 38 39 40 41 42 43 44 45 46 47 48 49 50

000
ASUS42 KCHS 290911
RWRCHS

REGIONAL WEATHER ROUNDUP
NATIONAL WEATHER SERVICE CHARLESTON SC
400 AM EST THU JAN 29 2015

NOTE: "FAIR" INDICATES FEW OR NO CLOUDS BELOW 12,000 FEET WITH NO
SIGNIFICANT WEATHER AND/OR OBSTRUCTIONS TO VISIBILITY.

NOT ALL STATIONS ARE QUALITY CONTROLLED BY THE NATIONAL
WEATHER SERVICE. USE DATA WITH CAUTION...ESPECIALLY
DEWPOINT OBSERVATIONS.

SCZ027-030-031-034>040-042>050-291000-
...SOUTHEAST SOUTH CAROLINA...

CITY           SKY/WX    TMP DP  RH WIND       PRES   REMARKS
N CHARLESTON   CLEAR     29  26  89 CALM      30.34S
WATERFRONT PRK   N/A     41 N/A N/A E6          N/A
MOUNT PLEASANT LGT RAIN N/A N/A N/A CALM      30.34R
PINOPOLIS      NOT AVBL
MONCKS CORNER  FAIR      28  27  93 CALM      30.34S
SUMMERVILLE    FAIR      30  30 100 CALM      30.34
BEAUFORT MCAS  CLEAR     31  29  92 CALM      30.33F
BEAUFORT ARPT  FAIR      34  34 100 CALM      30.32F
HILTON HEAD IS CLEAR     34  32  93 N3        30.34S
WALTERBORO     SUNNY     28 N/A N/A CALM      30.34F
ALLENDALE      FAIR      28  27  93 CALM      30.33R

...SOUTHERN MIDLANDS AND PEE DEE...

CITY           SKY/WX    TMP DP  RH WIND       PRES   REMARKS
GEORGETOWN     NOT AVBL
KINGSTREE      NOT AVBL
ORANGEBURG     PTCLDY    27  23  85 CALM      30.33F
BARNWELL         N/A     28  27  93 CALM      30.33S
AIKEN          FAIR      28  25  86 CALM      30.34S
MANNING        FAIR      28  28 100 CALM      30.33F
COLUMBIA       CLEAR     26  23  88 CALM      30.33S
SUMTER         CLEAR     27  22  82 CALM      30.32S
FLORENCE       CLEAR     27  22  81 CALM      30.33F
MYRTLE BEACH   CLEAR     27  21  80 NW3       30.36R
N MYRTLE BEACH CLEAR     26  23  88 CALM      30.33F

$$

GAZ063-065-086>088-099>101-113>116-118-119-134>141-150-291000-
...SOUTHEAST GEORGIA...

CITY           SKY/WX    TMP DP  RH WIND       PRES   REMARKS
SAVANNAH ARPT  CLEAR     31  27  85 CALM      30.33F
HUNTER AAF     CLEAR     32  29  89 CALM      30.31S
FORT STEWART   PTCLDY    29  26  87 CALM      30.31F
STATESBORO     CLEAR     28  28 100 CALM      30.32S
SYLVANIA       SUNNY     29  29 100 CALM      30.33S
CLAXTON        FAIR      30  28  93 CALM      30.32F

...CSRA...CENTRAL AND FAR SOUTHEAST GEORGIA...

CITY           SKY/WX    TMP DP  RH WIND       PRES   REMARKS
THOMSON        PTCLDY    29  28  96 CALM      30.36R
AUGUSTA-BUSH   CLEAR     24  22  91 CALM      30.34R
AUGUSTA-DANIEL CLEAR     36  23  59 CALM      30.32S
SWAINSBORO     FAIR      32  25  74 CALM      30.33R
VIDALIA        CLEAR     32  30  93 CALM      30.32R
EASTMAN        FAIR      29  29 100 CALM      30.35R
HAZLEHURST     FAIR      38  31  76 CALM      30.30R
ALMA           CLEAR     30  28  92 CALM      30.30F
WAYCROSS       CLEAR     34  34  99 CALM      30.31F
JESUP          FAIR      32  32 100 CALM      30.31F
BAXLEY         FAIR      32  32 100 CALM      30.30S
BRUNSWICK      CLEAR     32  32 100 CALM      30.33R
SAINT SIMONS   CLEAR     35  31  85 CALM      30.32R

$$

SCZ027-028-034-036>038-045-046-048>050-GAZ119-141-291000-
...LAKE AND SUPPLEMENTAL COASTAL OBSERVATIONS...

STATION/POSITION TIME  TEMP    WIND        PRES    WAVE   SWELL
                       AIR SEA DIR/SP/G            HT/PER HT/PER/DIR
                 (UTC) (F)     (DEG/KT/KT) (MB)    (FT/S) (FT/S/D)
UPR LAKE MARION  NOT AVBL
WINYAH BAY       0745   31     320/  2     1026.0
LAKE MURRAY      0800   38      90/  3/  4 1026.1S
ACE BASIN NERRS  NOT AVBL
FORT PULASKI     0800   47 52   60/ 10/ 12 1027.3R
SAPELO ISLAND    0800   35     360/  3     1027.0R

$$

ANZ835-935-AMZ111-154-330-350-352-354-370-450-454-472-291000-
...C-MAN AND BUOY OBSERVATIONS...

STATION/POSITION TIME  TEMP    WIND        PRES    WAVE   SWELL
                       AIR SEA DIR/SP/G            HT/PER HT/PER/DIR
                 (UTC) (F)     (DEG/KT/KT) (MB)    (FT/S) (FT/S/D)
BUOY 41004       0850   51 67   40/ 10/ 16 1026.1R   3/ 7   3/ 7
BUOY 41008       0850   50 54   60/ 10/ 14 1026.0F   3/11   2/100/11
FOLLY BEACH CMAN 0800   45      30/  7/  8 1027.6R
CAPERS NEARSHORE 0800   46      60/ 10/ 12   N/A
FRIPP NEARSHORE  0800   48      70/ 10/ 10 1025.9F


STATION/POSITION TIME  TEMP    WIND        PRES    WAVE   SWELL
                       AIR SEA DIR/SP/G            HT/PER HT/PER/DIR
                 (UTC) (F)     (DEG/KT/KT) (MB)    (FT/S) (FT/S/D)
5E ST. MARYS GA  NOT AVBL
FRYING PAN BUOY  0850   47 65   20/ 12/ 16 1027.0F   4/ 6   3/ 60/ 6
BUOY 41025       0850   40 71  350/ 16/ 21 1025.3F   7/11   7/ 30/11
CAPE LOOKOUT NC  0800   36      10/  8/ 12 1026.5F
BUOY 41002       0850   56 72  330/ 16/ 23 1023.9F  10/ 9   8/ 20/ 9
BUOY 41010       0820   62 75   40/ 14/ 19 1023.8F
ST AUGUSTINE FL  0900   54      40/ 12/ 13 1025.9S


$$


USA.gov is the U.S. government's official web portal to all federal, state and local government web resources and services.